Estación municipal de Les Masies de Roda (Osona, Ter)

Consulta los datos en tiempo real de la estación municipal de Les Masies de Roda





Hora UTC 02:45
Temperatura 16.5 ºC
Suelo 15 cm 14.2 ºC
Humedad 89.6 %
Presión 1022.9 hPa
Pluja 0.0 mm
Velocidad viento 0.1 km/h
Dirección viento ENE
Radiación solar 275.1 W/m²

Datos diarios 2026-09-03



Hora UTC (invierno +1h; verano +2h)
Temperatura (ºC) Humedad (%) Presión (hPa) Velocidad viento (km/h) Precipitación (mm) Radiación solar (W/m²)
Hora UTC Aire Suelo 15 cm Humedad Presión Vel. Dir. Vel. Max Dir. Intent. máx 5 min. Rad. Sol.
00:05 18.6 15.7 83.4 1022.7 0.9 ENE 0.9 ENE 0.0 9.3
00:10 18.8 15.8 82.1 1022.9 2.0 E 3.9 ESE 0.0 5.6
00:15 18.8 15.8 81.2 1022.7 1.2 WNW 3.5 WNW 0.0 8.9
00:20 18.2 15.7 84.7 1022.9 0.0 NNE 0.0 WNW 0.0 8.1
00:25 18.2 15.6 85.4 1022.8 0.0 NNE 0.0 WNW 0.0 6.7
00:30 18.2 15.5 85.4 1022.9 1.4 SSE 3.9 SE 0.0 5.4
00:35 18.4 15.5 83.7 1022.9 0.7 SE 2.8 SE 0.0 8.6
00:40 18.3 15.6 83.6 1023.0 0.8 ENE 2.8 ESE 0.0 6.5
00:45 18.0 15.5 85.4 1022.9 0.2 NW 2.5 NW 0.0 6.2
00:50 17.9 15.4 85.9 1023.0 0.0 NNE 2.8 NNE 0.0 54.0
00:55 18.1 15.4 86.3 1022.9 2.9 NE 3.5 NNE 0.0 195.1
01:00 18.3 15.6 85.8 1022.9 2.1 ENE 4.2 NE 0.0 188.6
01:05 18.1 15.4 85.2 1022.9 2.2 ENE 3.5 ENE 0.0 167.4
01:10 17.6 15.2 86.4 1022.8 0.0 NNE 0.0 ENE 0.0 169.5
01:15 17.3 15.1 87.9 1022.9 0.0 NNE 0.0 ENE 0.0 161.4
01:20 17.2 15.0 87.9 1022.8 0.6 NW 2.8 NW 0.0 161.8
01:25 17.1 14.9 89.2 1022.9 0.0 NNE 0.0 N 0.0 156.3
01:30 16.9 14.8 89.9 1022.8 1.8 W 3.2 W 0.0 259.6
01:35 16.9 14.8 91.2 1022.9 0.0 NNE 0.0 W 0.0 264.9
01:40 17.1 14.8 90.9 1022.8 0.0 NNE 0.0 NNE 0.0 273.2
01:45 17.1 14.8 88.9 1023.0 0.0 NNE 0.0 NNE 0.0 270.0
01:50 17.0 14.7 90.0 1022.8 0.0 NNE 0.0 NNE 0.0 274.2
01:55 16.9 14.5 89.9 1022.9 0.0 NNE 0.0 NNE 0.0 304.7
02:00 16.8 14.5 90.7 1022.8 0.0 NNE 0.0 ENE 0.0 268.9
02:05 16.7 14.5 91.0 1022.9 0.0 NNE 0.0 WNW 0.0 266.2
02:10 16.7 14.5 91.1 1022.7 0.0 NNE 0.0 WNW 0.0 270.2
02:15 16.9 14.5 90.5 1022.9 0.0 NNE 0.0 NNE 0.0 274.5
02:20 16.9 14.4 90.0 1022.8 0.0 NNE 0.0 NNE 0.0 288.1
02:25 16.7 14.4 89.9 1022.9 0.2 NNE 2.1 NNE 0.0 284.1
02:30 16.7 14.3 90.4 1022.8 0.7 ENE 2.1 ENE 0.0 275.8
02:35 16.8 14.3 89.9 1023.0 1.3 NE 3.2 ENE 0.0 270.1
02:40 16.7 14.2 89.6 1022.8 1.7 ENE 3.5 ENE 0.0 282.9
02:45 16.5 14.2 89.6 1022.9 0.1 ENE 1.8 ENE 0.0 275.1
Máxima 18.8 15.8 91.2 1023.0 2.9 NE 4.2 NE 0.0 304.7
Mínima 16.5 14.2 81.2 1022.7
Total 0.0